Location: Wellington
(41.3000°S, 174.7830°E)
Time: 10:10:18
(UTC+13:00)

USA 32 - Pass Details

Date: 24 January 2019
Orbit: 776 x 784 km, 85.0° (Epoch: 09 February)

Event Time Altitude Azimuth Distance (km) Brightness Sun altitude
Rises 21:31:12 0° 354° (N) 3,250 7.0 -7.6°
Reaches altitude 10° 21:33:32 10° 352° (N) 2,332 6.2 -8.0°
Maximum altitude 21:38:46 78° 265° (W) 809 4.3 -8.8°
Drops below altitude 10° 21:44:06 10° 178° (S) 2,368 7.0 -9.6°
Sets 21:46:29 0° 176° (S) 3,304 7.8 -10.0°
